Dewpoint
78 78 77 74 73 72 70 68 55 57 47 45 47 46 47 52 53 54 53 55 54 58 57 57 55 55 58 55 62 63 64 58 63 53 52 65 70 71 72 73 73 72 72 74 74 75 75 76 76 76 76 76 76 76 76 76 76 77 77 77 77 77 76 76 76 77 77 77 77 76 76 77 77 77 77 77 77 77 77 77 77 77 77 77 77 77 77 77 77 76 76 76 76 75 75 75 75
78 78 77 74 73 71 67 65 55 45 44 41 42 48 49 53 53 52 52 54 57 59 62 63 64 64 64 63 64 61 62 65 66 66 68 69 71 71 73 73 73 73 74 74 74 75 75 76 76 76 76 76 76 77 77 76 76 76 76 76 76 77 77 76 76 76 76 76 76 76 77 77 77 77 77 77 77 77 77 77 77 77 77 77 77 76 77 77 77 77 77 76 75 75 75 75 75
77 77 74 74 72 72 69 63 45 42 41 40 42 48 51 50 51 52 54 57 59 60 61 61 61 61 61 61 59 60 59 66 67 67 68 70 69 71 73 73 74 74 74 75 75 75 76 76 77 77 77 76 76 77 77 77 77 76 76 76 76 77 77 76 76 76 76 76 76 77 77 77 76 77 77 77 77 77 77 77 77 77 77 77 76 76 76 77 76 76 76 76 75 75 75 75 75
76 74 72 73 69 69 58 57 49 41 39 39 44 47 49 51 53 56 57 58 59 60 59 59 59 62 60 60 62 63 64 64 67 67 67 69 69 72 73 74 75 74 75 75 75 76 76 76 77 77 77 77 77 77 77 77 77 77 77 77 77 77 77 76 76 75 75 76 76 76 76 76 77 77 77 76 76 77 77 77 77 77 76 76 76 76 76 76 76 76 76 76 75 75 75 75 75
70 72 73 71 64 59 57 55 49 41 40 38 44 49 51 53 55 56 55 57 58 58 59 60 60 62 62 61 62 61 62 66 67 68 68 70 72 73 73 74 74 74 75 75 76 76 76 77 77 77 77 78 78 77 77 77 77 77 77 77 77 77 77 77 76 76 76 75 76 77 76 76 77 76 76 76 76 76 76 76 76 76 76 76 76 76 76 76 76 76 76 76 76 75 75 75 74
67 67 68 67 63 65 52 39 37 34 36 37 44 48 51 53 52 53 53 55 56 58 58 58 59 59 61 62 65 64 65 62 66 67 69 70 72 73 74 75 74 74 74 75 75 76 76 77 77 77 77 78 78 77 77 77 77 76 77 77 77 77 77 76 76 76 77 77 77 77 76 77 76 76 76 76 76 76 76 76 76 76 76 76 76 76 76 76 76 76 76 76 75 76 75 75 74
64 63 65 65 64 61 46 36 33 35 37 45 47 48 49 51 54 56 57 57 58 59 60 60 61 60 60 63 65 66 67 67 66 67 69 71 72 73 74 74 73 74 74 75 75 76 76 77 77 77 78 77 77 77 77 77 77 76 76 76 76 77 77 77 77 77 77 77 77 76 76 76 76 76 76 76 76 76 76 76 76 76 76 76 76 76 76 75 75 75 75 75 74 74 73 74 74
67 62 63 55 51 49 40 38 34 37 42 48 49 50 52 53 55 55 55 55 56 56 58 59 61 61 61 65 63 66 67 68 68 70 71 72 72 73 73 73 73 73 74 75 75 76 77 77 77 77 77 77 77 77 77 77 77 77 77 77 77 77 77 77 77 77 77 77 76 76 76 76 76 75 75 76 76 76 76 76 76 76 76 75 75 75 75 75 75 75 75 74 74 74 73 73 74
64 61 59 51 44 43 40 36 34 37 43 48 50 54 56 53 54 55 55 56 57 59 61 60 59 57 62 63 64 66 67 68 70 71 71 72 72 73 73 73 73 73 74 74 75 76 76 77 77 76 77 77 76 77 76 77 77 77 77 77 77 76 76 76 77 77 77 76 76 76 76 75 75 75 75 75 76 76 76 76 75 75 75 75 75 75 75 74 74 74 74 74 73 73 74 73 73
62 60 47 47 46 41 42 39 35 36 38 46 50 51 52 55 55 55 55 56 58 60 60 62 62 61 64 63 65 66 67 69 70 70 71 72 72 72 73 73 73 73 74 74 75 76 76 78 77 77 77 76 76 76 76 77 77 77 76 76 76 76 76 76 76 76 76 76 76 76 76 75 75 75 75 75 74 75 75 75 75 75 74 74 74 74 74 74 74 74 73 73 71 73 73 73 73
57 60 52 46 44 41 37 37 38 39 39 43 48 53 55 56 56 56 57 57 59 60 63 63 62 63 63 64 66 67 68 69 69 69 71 72 72 72 72 73 73 73 74 74 76 77 77 76 76 77 77 76 76 76 76 76 76 76 76 76 75 75 75 75 75 75 76 76 75 76 76 76 75 75 75 75 75 75 75 74 74 74 74 74 74 74 75 74 74 74 74 74 74 74 74 73 73
49 48 51 45 43 42 42 40 41 42 45 48 50 54 56 57 57 57 58 58 60 61 61 61 62 64 63 64 65 67 68 68 69 69 71 71 71 72 72 73 73 73 74 75 76 76 77 76 76 77 77 77 77 77 77 76 76 76 76 76 76 75 75 75 76 75 76 76 76 76 76 75 75 75 75 75 75 75 75 74 74 74 74 74 74 75 75 75 75 74 74 74 74 74 74 74 74
50 50 44 42 41 45 45 40 40 45 45 49 52 55 57 56 56 57 58 59 59 59 59 62 64 63 62 63 67 67 67 68 69 70 70 71 71 71 72 73 73 74 75 76 76 76 76 76 76 76 76 77 77 77 77 77 76 76 77 77 76 76 76 76 75 75 76 76 76 76 75 75 75 75 75 75 75 75 74 74 74 74 74 74 74 75 75 75 75 74 74 75 75 74 74 74 74
49 49 47 43 46 45 40 42 45 40 41 47 53 55 56 56 57 58 58 58 58 58 61 64 62 63 64 65 67 66 67 68 69 70 70 71 72 72 73 73 74 75 75 76 76 76 76 76 76 76 76 76 76 77 77 76 76 76 77 76 76 76 76 76 75 76 76 76 76 76 76 76 76 75 75 75 75 75 74 74 74 74 74 74 74 74 74 75 75 75 75 75 74 74 74 74 74
44 51 50 46 42 42 43 42 41 39 40 46 52 53 54 57 57 57 57 56 58 62 62 62 63 61 61 63 64 66 67 68 69 70 70 72 73 73 73 74 74 75 75 75 76 76 76 76 76 76 76 76 76 76 76 76 76 77 77 77 76 76 76 76 76 76 76 76 76 76 76 76 75 75 75 75 74 74 74 74 74 73 73 73 74 73 73 74 75 75 75 73 73 74 75 75 75
43 45 46 44 41 39 40 40 40 39 40 45 48 52 54 55 57 56 56 58 59 61 60 59 62 58 61 63 64 67 68 68 69 70 72 72 73 73 73 74 74 75 75 75 76 76 76 76 76 76 76 76 76 76 76 76 77 77 77 77 76 76 77 76 76 76 76 76 76 76 76 76 75 75 75 75 74 75 75 74 74 74 74 74 73 73 72 72 73 73 73 74 75 74 75 74 73
42 42 42 43 40 40 40 41 41 38 40 42 47 53 53 54 54 56 58 59 58 58 58 60 59 62 63 63 67 68 68 69 70 70 71 72 72 72 73 73 74 74 75 75 75 75 75 75 76 76 76 75 75 75 76 76 77 77 76 77 76 76 76 76 76 76 76 76 75 75 76 76 75 74 74 75 75 76 77 75 74 74 74 74 74 73 73 73 73 73 73 73 73 74 75 74 73
41 43 41 41 40 40 42 42 45 42 41 44 49 52 53 51 54 56 57 57 57 57 57 59 62 62 64 66 67 68 69 69 69 70 70 70 71 71 72 72 73 73 74 74 75 75 75 75 75 75 75 75 75 76 76 76 76 77 76 76 76 75 76 76 76 75 75 75 75 75 75 76 74 73 73 77 75 76 76 76 75 75 74 73 74 74 73 74 74 73 74 74 73 73 74 75 76
41 42 41 38 39 40 43 44 47 43 43 46 48 51 51 52 55 56 55 55 56 56 58 59 59 61 64 66 67 68 68 68 69 69 69 70 70 70 71 72 72 72 73 74 74 75 75 75 75 75 75 75 75 75 76 76 75 75 75 75 76 76 77 76 75 76 74 74 75 74 76 75 73 73 74 75 77 77 77 76 76 75 75 76 75 75 76 75 75 75 75 75 75 74 75 73 72
41 40 39 39 40 40 42 44 45 44 45 45 46 48 51 53 54 55 54 54 56 56 58 59 60 61 63 65 67 68 68 68 69 69 69 69 70 70 70 71 71 72 72 73 73 75 75 75 75 75 75 75 75 75 75 75 75 75 75 75 75 75 75 76 74 75 74 74 74 74 75 74 74 73 77 76 75 76 76 77 76 76 75 75 76 76 76 76 75 76 75 75 76 77 72 73 72
39 39 39 38 38 40 42 44 44 44 45 45 46 49 52 53 54 54 54 55 56 57 59 59 60 61 63 65 66 67 67 67 68 69 69 69 70 70 70 71 71 71 72 73 74 74 74 75 75 75 75 75 75 75 75 75 75 75 75 75 75 75 75 75 74 75 74 74 74 75 75 75 75 74 73 73 74 74 74 74 75 75 74 74 76 75 75 75 76 75 75 76 74 74 73 71 71
33 38 39 37 38 41 43 43 44 44 45 45 47 50 51 53 53 54 55 54 55 57 59 60 62 63 64 65 66 66 67 67 68 68 69 69 69 70 71 71 71 72 72 72 73 74 74 74 74 74 75 75 75 75 75 75 76 75 75 75 75 75 75 74 74 75 75 74 74 75 75 75 75 74 73 73 73 73 73 74 74 74 74 74 75 74 74 74 74 74 74 73 72 72 72 71 71
37 36 36 37 40 42 43 44 44 45 46 46 47 50 52 52 52 54 56 56 56 59 60 61 63 64 64 65 66 66 66 67 68 68 69 69 69 70 70 71 71 71 72 72 73 73 74 74 74 74 74 75 75 75 75 75 75 75 75 75 74 74 74 74 75 74 75 74 74 75 75 74 74 74 74 73 73 73 73 73 73 73 74 74 74 73 73 74 74 74 73 73 72 72 72 71 71
33 31 36 38 42 42 42 46 47 46 47 47 51 54 52 53 53 55 55 57 58 60 61 62 64 64 65 65 65 66 66 67 67 68 69 69 69 70 70 70 71 71 72 72 73 73 74 74 74 74 74 74 74 75 75 75 75 75 75 76 76 77 76 75 75 75 75 75 75 75 76 74 74 74 74 74 73 73 73 73 73 73 73 73 74 74 74 74 73 73 73 72 72 72 72 71 71
26 35 37 38 41 41 44 47 47 47 47 49 52 52 53 54 54 55 56 57 59 61 62 63 64 64 64 65 65 66 67 67 67 68 68 69 69 70 70 70 71 71 71 72 73 73 73 74 74 74 74 74 74 75 74 74 75 75 75 75 75 77 75 74 75 75 75 75 75 75 76 75 74 74 74 74 73 73 73 73 73 73 73 73 73 72 73 73 73 73 73 73 72 72 71 71 71
36 36 38 39 41 44 46 46 47 48 48 50 51 51 52 53 56 56 57 58 60 61 62 63 63 64 64 64 65 66 66 67 67 67 68 68 69 69 69 69 70 70 71 72 72 73 73 74 74 74 74 74 74 74 74 74 74 74 74 75 75 77 75 75 74 74 75 75 74 75 75 75 75 74 74 74 73 73 73 73 73 73 73 72 72 72 72 73 73 73 72 72 72 72 71 71 72
26 39 39 40 43 45 47 47 48 48 49 52 52 53 53 55 55 55 58 59 61 61 61 62 63 63 64 64 65 66 66 66 67 67 68 68 68 68 68 69 69 70 71 71 72 72 73 73 74 74 74 75 74 74 74 74 74 74 74 74 74 75 75 75 74 74 74 74 74 75 75 75 75 74 74 73 72 72 72 72 72 72 72 72 72 72 72 73 73 72 72 72 72 71 71 71 72
21 38 42 43 45 47 47 48 49 49 50 53 53 53 53 53 56 55 57 59 60 60 61 61 62 63 64 64 65 66 66 66 67 67 67 67 67 68 68 68 69 70 70 71 71 72 73 73 73 74 74 75 74 74 75 74 74 74 74 73 74 74 75 74 73 73 74 74 74 74 74 74 76 75 74 73 72 72 71 71 71 71 72 72 72 72 72 73 73 71 71 71 70 70 70 71 71
34 42 42 45 47 47 48 48 49 49 50 52 52 52 52 53 54 57 58 60 60 60 60 60 61 62 63 64 64 65 65 65 66 67 67 67 67 68 68 68 69 69 70 71 71 72 72 73 73 73 74 74 74 73 73 74 74 74 74 73 73 74 74 74 73 73 73 73 74 74 73 74 74 74 74 73 74 72 71 70 70 71 71 72 72 73 73 72 71 70 69 69 69 70 70 70 71
39 42 43 45 45 46 48 49 49 49 50 51 51 48 50 52 55 57 58 59 59 59 59 60 60 61 62 63 64 64 65 65 65 66 66 67 67 68 68 68 69 69 69 70 71 72 72 73 73 73 74 74 74 73 73 73 74 73 73 73 74 73 73 73 74 73 73 73 73 74 73 73 74 73 73 73 73 72 71 70 70 71 70 71 72 73 72 71 70 69 69 69 71 71 71 71 71
37 40 44 43 43 44 46 48 49 49 51 50 49 47 47 52 55 57 58 59 58 58 59 59 60 60 61 62 63 63 64 64 64 65 65 66 67 67 67 67 68 69 70 70 71 71 73 73 74 73 74 73 75 73 73 73 73 74 73 73 73 73 73 73 73 73 73 73 73 73 74 74 74 73 73 72 72 72 71 71 71 71 71 71 71 72 72 71 70 70 70 69 69 70 69 71 71
32 39 40 41 42 43 45 48 48 48 50 50 48 47 47 52 54 57 57 58 58 58 58 58 59 59 60 60 61 62 62 62 63 63 63 65 66 66 67 66 68 68 69 70 70 71 72 73 74 73 74 73 74 74 73 73 73 73 73 75 73 74 74 73 73 73 73 73 74 73 73 73 74 73 73 73 72 72 71 69 71 71 72 72 72 71 71 70 70 70 71 70 69 69 69 70 69
30 35 36 38 40 42 42 45 48 49 49 48 48 46 50 51 54 56 57 57 57 57 57 57 57 57 58 59 59 61 61 61 61 61 62 64 65 66 66 66 67 68 69 69 70 70 71 72 74 73 73 73 73 73 73 72 73 73 73 73 73 73 73 73 73 73 73 73 74 74 74 74 74 73 72 71 70 71 71 72 72 72 71 71 70 70 70 71 70 70 70 71 70 69 69 69 70
29 33 35 35 40 41 41 44 43 48 48 45 47 48 50 51 53 55 56 56 55 55 55 55 55 56 57 58 58 59 60 60 60 60 61 63 64 65 66 68 67 68 68 69 69 70 70 71 72 72 72 72 73 73 73 72 72 73 73 73 76 73 73 73 73 73 73 73 74 73 73 74 74 73 72 72 72 72 72 71 70 70 70 70 69 69 69 69 69 69 69 69 70 69 69 69 69
27 31 33 32 40 40 40 42 41 46 46 45 46 48 49 50 53 54 55 55 54 54 54 54 55 56 56 57 57 58 60 59 60 60 61 64 64 65 65 66 67 67 68 69 69 70 70 70 72 72 72 72 72 72 72 72 73 73 73 74 75 74 74 74 74 73 73 72 73 73 73 74 74 72 73 73 72 72 71 71 71 70 70 69 69 68 69 70 71 69 69 69 69 70 69 69 69
27 30 31 33 37 38 39 42 42 45 44 44 46 47 48 50 52 53 54 54 54 54 54 54 55 56 56 56 57 57 59 59 60 60 61 63 63 64 64 66 67 67 68 69 69 69 69 70 71 71 72 72 71 72 73 73 73 73 73 72 71 72 72 74 74 73 73 73 73 74 73 73 73 73 73 72 70 70 69 70 70 69 69 69 68 68 68 67 68 68 69 69 68 69 70 70 70
28 27 31 31 37 37 38 40 41 45 44 44 46 47 47 49 51 52 53 54 54 54 54 55 55 56 56 56 57 57 58 59 61 61 61 62 63 64 65 66 66 67 67 68 69 69 69 70 70 70 71 71 71 72 73 73 72 72 71 72 71 71 72 72 74 73 73 73 73 73 72 72 71 72 72 71 71 72 71 70 69 69 68 69 68 68 68 68 68 68 68 69 69 67 67 68 68
24 31 31 29 35 35 36 38 41 44 43 43 47 46 47 49 50 51 52 53 53 53 54 55 56 56 56 56 56 57 57 60 62 62 62 63 63 64 64 65 67 65 66 68 68 68 69 70 70 70 71 71 71 72 73 73 72 72 71 72 70 71 71 73 73 73 72 73 73 72 73 72 71 72 73 72 72 71 71 69 68 68 68 69 69 69 68 70 69 68 68 67 67 67 66 67 67
26 26 28 30 31 33 35 37 41 42 42 43 45 46 47 49 49 50 51 51 53 54 54 56 56 56 57 56 56 57 58 61 63 62 64 64 65 64 65 65 66 65 66 67 68 68 69 70 70 70 71 71 71 72 73 72 72 72 71 71 72 71 71 73 72 73 73 71 71 72 73 72 71 72 73 73 71 71 70 69 70 68 68 69 69 68 67 67 67 68 67 66 65 65 67 68 66
22 26 31 31 32 31 31 34 39 40 41 42 46 45 47 49 49 49 50 51 52 53 54 56 57 57 57 56 56 57 58 61 63 63 64 65 66 65 65 65 66 66 67 68 68 68 69 71 70 71 71 72 72 72 73 73 73 73 72 72 72 71 70 72 68 67 66 65 65 67 69 70 71 71 72 72 71 70 70 70 68 68 67 68 68 67 66 67 66 67 67 67 66 64 63 64 68
21 22 28 30 31 30 32 33 35 38 42 45 45 45 46 48 47 47 49 51 51 52 53 55 57 57 57 57 57 57 58 60 63 64 64 65 66 66 65 66 66 67 68 68 68 69 70 71 71 72 72 72 72 73 74 73 73 72 72 72 72 70 67 65 63 63 64 65 65 65 67 69 69 69 70 70 70 69 69 68 68 67 67 67 68 67 66 66 66 66 66 67 64 63 62 63 65
21 19 22 26 29 30 34 34 33 35 41 44 44 40 42 46 47 47 48 49 50 51 52 53 56 57 57 57 56 57 59 61 63 64 64 65 66 66 66 67 67 67 69 69 69 70 70 71 71 73 72 72 72 73 74 73 74 72 71 70 68 67 66 63 60 61 62 63 62 65 66 67 68 68 68 68 69 69 68 67 67 68 67 68 69 67 67 66 65 66 65 65 65 64 63 63 63
21 23 20 21 25 29 33 33 33 34 34 40 43 39 39 42 45 47 48 48 49 50 51 52 54 56 57 57 57 57 58 61 63 64 65 65 66 67 67 67 67 68 69 70 71 71 71 71 71 73 73 73 73 73 74 74 72 72 71 70 69 68 67 64 63 62 62 62 64 65 65 65 65 66 66 67 68 69 67 67 67 67 68 66 69 67 66 66 65 65 67 65 64 66 65 63 63
20 21 21 21 24 28 32 33 33 34 40 41 42 41 39 39 43 46 48 48 48 49 50 51 53 55 56 56 57 57 58 61 63 64 65 66 66 67 67 68 68 68 70 71 71 72 72 72 72 72 73 73 73 74 73 73 72 71 70 70 69 67 64 64 64 63 63 65 64 64 64 65 64 65 66 66 68 70 68 67 66 67 67 69 70 65 66 67 67 67 68 67 68 68 65 64 64
21 21 19 20 24 28 30 33 33 35 35 39 41 44 39 39 43 45 47 47 47 48 48 50 52 54 56 56 57 58 58 60 63 64 65 66 67 67 68 68 69 70 71 71 72 72 72 73 73 73 73 73 73 73 73 73 72 71 70 69 68 66 62 63 66 66 66 66 62 63 63 65 65 65 64 66 67 69 69 66 66 66 66 67 68 66 66 66 66 66 65 64 65 67 66 66 64
19 19 20 20 20 24 29 32 32 38 34 36 40 39 35 37 44 43 45 46 46 47 48 48 51 53 55 56 57 58 59 60 63 63 64 65 67 67 68 69 69 70 72 72 72 73 73 73 73 73 72 73 73 73 73 72 72 72 70 68 67 65 64 63 64 65 64 63 62 63 64 64 64 63 64 65 66 67 67 67 66 66 66 67 67 64 65 65 65 64 64 64 63 65 66 66 64
20 16 15 20 29 28 34 37 35 35 31 34 39 39 36 34 41 42 43 44 46 46 47 48 50 52 54 55 56 58 59 60 62 63 64 65 66 67 68 69 69 70 72 72 72 73 73 73 73 72 72 73 73 73 73 72 72 71 70 68 66 63 63 63 62 61 62 61 62 62 63 62 62 62 66 65 66 67 66 68 66 66 66 70 68 64 64 64 64 64 64 64 65 65 65 65 65
19 19 18 19 20 30 33 31 36 31 30 35 37 38 37 33 36 42 44 45 45 46 46 47 48 50 53 55 56 58 59 60 61 63 64 65 66 67 68 68 69 70 71 72 72 73 73 73 73 72 72 72 73 73 72 72 71 71 69 67 64 62 63 62 60 61 63 62 62 63 62 62 62 64 64 65 66 66 67 66 67 66 68 67 65 65 64 65 65 64 64 64 63 63 63 65 62
16 19 20 18 23 21 26 27 28 28 29 32 33 37 36 35 36 41 43 44 45 45 46 46 47 49 52 54 56 57 59 60 61 63 64 65 66 67 68 68 69 70 71 71 72 72 73 72 73 72 72 72 73 73 72 72 70 69 68 65 63 62 62 62 60 61 62 62 63 63 62 62 62 61 63 65 65 66 66 65 65 65 66 66 65 65 65 65 64 64 63 63 62 63 64 64 63
16 16 22 18 17 15 17 24 25 26 28 26 29 36 36 36 36 40 43 44 44 45 45 46 47 48 51 53 55 57 59 60 61 62 63 64 65 66 67 68 69 69 70 71 71 72 72 72 72 72 72 72 72 73 72 71 70 68 66 64 62 64 62 62 61 61 62 63 63 63 62 62 61 60 62 64 65 66 66 66 67 65 65 65 66 65 65 64 64 64 63 63 63 64 63 63 64
17 18 17 20 21 19 15 22 26 27 28 30 28 34 34 32 35 35 41 44 44 45 45 46 46 48 51 52 54 56 58 60 61 62 63 64 65 66 67 68 68 69 70 71 71 72 72 72 72 72 72 72 72 72 72 71 69 66 63 62 61 63 62 61 61 62 63 63 63 62 62 62 61 60 63 65 65 65 65 65 66 65 65 65 66 66 66 64 65 64 64 64 64 63 63 64 64
16 18 21 20 17 30 13 23 24 24 23 22 31 33 32 33 38 44 40 41 44 45 45 47 47 49 50 52 53 55 57 60 61 62 62 64 65 66 67 67 68 68 69 70 71 71 72 72 72 72 72 72 72 72 71 70 68 66 63 61 61 63 65 62 63 65 64 63 63 62 62 62 61 62 63 64 65 65 64 65 66 65 64 64 65 65 64 64 64 63 63 63 63 66 64 63 64
19 18 16 16 22 17 30 35 36 29 24 18 33 29 28 34 29 34 45 39 42 46 46 46 46 49 50 51 53 54 56 59 61 61 62 63 64 66 66 67 67 68 69 69 70 71 71 71 71 72 72 72 72 72 70 69 66 64 64 62 62 63 63 61 62 64 63 63 63 62 62 62 62 63 63 65 64 65 64 64 65 65 64 64 64 65 65 64 63 63 64 62 62 63 65 64 63
17 14 16 24 29 25 21 14 27 26 19 23 26 21 24 25 27 41 44 42 45 45 45 45 46 49 50 51 52 54 56 58 60 61 62 63 64 65 66 66 67 67 68 69 70 71 71 71 71 71 71 71 71 71 69 67 65 64 63 62 62 62 62 62 63 63 63 63 62 62 62 62 62 63 64 65 65 64 64 69 64 64 64 63 64 64 64 64 63 63 63 63 63 63 63 63 63
13 13 18 13 20 19 26 25 19 19 19 20 23 27 33 27 31 36 35 44 45 45 46 45 47 48 49 50 51 53 55 58 59 60 61 62 63 64 65 66 66 67 68 69 69 70 71 71 71 71 71 71 71 70 69 67 65 64 63 63 62 62 63 62 63 64 63 62 62 62 62 62 62 63 65 65 64 63 64 64 64 63 63 64 64 64 64 64 63 63 63 63 63 62 62 62 62
22 17 15 25 20 25 20 20 24 21 19 22 18 25 21 34 31 31 30 41 45 46 46 45 46 48 48 49 51 52 55 57 58 59 61 62 62 63 64 65 65 66 67 68 69 69 70 71 71 71 71 71 70 69 68 66 65 64 63 63 62 63 63 63 63 63 63 62 62 62 62 61 61 64 64 64 64 63 63 62 63 64 63 63 63 63 63 63 63 63 63 63 63 62 62 62 62
13 13 16 17 27 24 21 30 21 18 24 21 21 16 27 33 39 36 31 37 45 46 45 46 46 48 48 49 50 52 54 56 58 59 60 60 61 62 63 64 65 65 66 67 68 69 69 70 71 71 71 70 70 69 68 66 65 64 64 62 62 62 63 62 62 62 63 62 63 63 62 61 62 63 64 64 63 63 62 63 63 64 63 62 63 62 63 63 62 63 63 62 63 62 62 63 63
12 12 12 14 15 18 16 16 24 27 21 20 17 15 26 31 46 43 38 39 46 46 46 46 46 48 49 50 50 51 53 56 57 58 59 59 60 61 62 63 64 64 65 66 67 68 69 70 70 70 70 70 69 68 67 66 65 64 64 62 62 62 63 63 62 62 63 62 62 63 62 62 61 62 63 64 63 63 63 63 62 62 62 62 62 62 62 63 63 63 63 64 63 63 62 63 62